Time,TemperatureF,DewpointF,PressureIn,WindDirection,WindDirectionDegrees,WindSpeedMPH,WindSpeedGustMPH,Humidity,HourlyPrecipIn,Conditions,Clouds,dailyrainin,SoftwareType,DateUTC
2013-09-05 00:00:00,64.0,-99.9,-100.00,SSW,196,72.0,-999.0,-999,-99.99,,,0.00,,2013-09-05 06:00:00,
2013-09-05 00:52:00,64.0,-99.9,-100.00,SSW,196,72.0,-999.0,-999,-99.99,,,0.00,,2013-09-05 06:52:00,
2013-09-05 02:00:00,57.0,-99.9,-100.00,SSW,213,79.0,-999.0,-999,-99.99,,,0.00,,2013-09-05 08:00:00,
2013-09-05 02:52:00,57.0,-99.9,-100.00,SSW,213,79.0,-999.0,-999,-99.99,,,0.00,,2013-09-05 08:52:00,
2013-09-05 03:00:00,56.0,-99.9,-100.00,WSW,238,82.0,-999.0,-999,-99.99,,,0.00,,2013-09-05 09:00:00,
2013-09-05 03:54:00,56.0,-99.9,-100.00,WSW,238,82.0,-999.0,-999,-99.99,,,0.00,,2013-09-05 09:54:00,
2013-09-05 04:00:00,58.0,-99.9,-100.00,SW,219,82.0,-999.0,-999,-99.99,,,0.00,,2013-09-05 10:00:00,
2013-09-05 04:53:00,58.0,-99.9,-100.00,SW,219,82.0,-999.0,-999,-99.99,,,0.00,,2013-09-05 10:53:00,
2013-09-05 05:00:00,58.0,-99.9,-100.00,WSW,237,80.0,-999.0,-999,-99.99,,,0.00,,2013-09-05 11:00:00,
2013-09-05 05:52:00,58.0,-99.9,-100.00,WSW,237,80.0,-999.0,-999,-99.99,,,0.00,,2013-09-05 11:52:00,
2013-09-05 07:00:00,60.0,-99.9,-100.00,SW,228,78.0,-999.0,-999,-99.99,,,0.00,,2013-09-05 13:00:00,
2013-09-05 07:53:00,60.0,-99.9,-100.00,SW,228,78.0,-999.0,-999,-99.99,,,0.00,,2013-09-05 13:53:00,
2013-09-05 08:00:00,66.0,-99.9,-100.00,South,182,74.0,-999.0,-999,-99.99,,,0.00,,2013-09-05 14:00:00,
2013-09-05 08:52:00,66.0,-99.9,-100.00,South,182,74.0,-999.0,-999,-99.99,,,0.00,,2013-09-05 14:52:00,
2013-09-05 09:00:00,69.0,-99.9,-100.00,SE,142,56.0,-999.0,-999,-99.99,,,0.00,,2013-09-05 15:00:00,
2013-09-05 09:54:00,69.0,-99.9,-100.00,SE,142,56.0,-999.0,-999,-99.99,,,0.00,,2013-09-05 15:54:00,
2013-09-05 10:00:00,73.0,-99.9,-100.00,SE,130,52.0,-999.0,-999,-99.99,,,0.00,,2013-09-05 16:00:00,
2013-09-05 10:54:00,73.0,-99.9,-100.00,SE,130,52.0,-999.0,-999,-99.99,,,0.00,,2013-09-05 16:54:00,
2013-09-05 11:00:00,77.0,-99.9,-100.00,ESE,110,40.0,-999.0,-999,-99.99,,,0.00,,2013-09-05 17:00:00,
2013-09-05 11:52:00,77.0,-99.9,-100.00,ESE,110,40.0,-999.0,-999,-99.99,,,0.00,,2013-09-05 17:52:00,
2013-09-05 12:00:00,76.0,-99.9,-100.00,ESE,103,38.0,-999.0,-999,-99.99,,,0.00,,2013-09-05 18:00:00,
2013-09-05 12:52:00,76.0,-99.9,-100.00,ESE,103,38.0,-999.0,-999,-99.99,,,0.00,,2013-09-05 18:52:00,
2013-09-05 13:00:00,78.0,-99.9,-100.00,ESE,106,40.0,-999.0,-999,-99.99,,,0.00,,2013-09-05 19:00:00,
2013-09-05 13:52:00,78.0,-99.9,-100.00,ESE,106,40.0,-999.0,-999,-99.99,,,0.00,,2013-09-05 19:52:00,
2013-09-05 14:00:00,75.0,-99.9,-100.00,ESE,117,45.0,-999.0,-999,-99.99,,,0.00,,2013-09-05 20:00:00,
2013-09-05 14:52:00,75.0,-99.9,-100.00,ESE,117,45.0,-999.0,-999,-99.99,,,0.00,,2013-09-05 20:52:00,
2013-09-05 15:00:00,75.0,-99.9,-100.00,SE,130,46.0,-999.0,-999,-99.99,,,0.00,,2013-09-05 21:00:00,
2013-09-05 15:54:00,75.0,-99.9,-100.00,SE,130,46.0,-999.0,-999,-99.99,,,0.00,,2013-09-05 21:54:00,
2013-09-05 16:00:00,74.0,-99.9,-100.00,ESE,117,42.0,-999.0,-999,-99.99,,,0.00,,2013-09-05 22:00:00,
2013-09-05 16:53:00,74.0,-99.9,-100.00,ESE,117,42.0,-999.0,-999,-99.99,,,0.00,,2013-09-05 22:53:00,
2013-09-05 17:00:00,72.0,-99.9,-100.00,SE,127,45.0,-999.0,-999,-99.99,,,0.00,,2013-09-05 23:00:00,
2013-09-05 17:53:00,72.0,-99.9,-100.00,SE,127,45.0,-999.0,-999,-99.99,,,0.00,,2013-09-05 23:53:00,
2013-09-05 18:00:00,68.0,-99.9,-100.00,SE,146,53.0,-999.0,-999,-99.99,,,0.00,,2013-09-06 00:00:00,
2013-09-05 18:52:00,68.0,-99.9,-100.00,SE,146,53.0,-999.0,-999,-99.99,,,0.00,,2013-09-06 00:52:00,
2013-09-05 19:00:00,65.0,-99.9,-100.00,SSE,160,59.0,-999.0,-999,-99.99,,,0.00,,2013-09-06 01:00:00,
2013-09-05 19:52:00,65.0,-99.9,-100.00,SSE,160,59.0,-999.0,-999,-99.99,,,0.00,,2013-09-06 01:52:00,
2013-09-05 21:00:00,65.0,-99.9,-100.00,South,186,65.0,-999.0,-999,-99.99,,,0.00,,2013-09-06 03:00:00,
2013-09-05 21:55:00,65.0,-99.9,-100.00,South,186,65.0,-999.0,-999,-99.99,,,0.00,,2013-09-06 03:55:00,
2013-09-05 22:00:00,62.0,-99.9,-100.00,South,176,64.0,-999.0,-999,-99.99,,,0.00,,2013-09-06 04:00:00,
2013-09-05 22:54:00,62.0,-99.9,-100.00,South,176,64.0,-999.0,-999,-99.99,,,0.00,,2013-09-06 04:54:00,